Weather History for Jackson, TN

Change the Weather History Date:

Monday, December 17, 2012

  Actual Average Record
Temperature  
Mean Temperature 50 °F 40 °F  
Max Temperature 65 °F 50 °F 71 °F (1984)
Min Temperature 35 °F 31 °F 10 °F (2000)
Degree Days  
Heating Degree Days 15 25  
Month to date heating degree days 197 390  
Since 1 July heating degree days 1004 1057  
Cooling Degree Days 0 0  
Month to date cooling degree days 3 0  
Year to date cooling degree days 1934 1697  
Moisture  
Dew Point 50 °F    
Average Humidity 74    
Maximum Humidity 100    
Minimum Humidity 48    
Precipitation  
Precipitation 0.01 in 0.17 in 1.64 in (1990)
Month to date precipitation 2.46 3.12  
Year to date precipitation 40.09 51.04  
Snow  
Snow 0.00 in 0.00 in T in (1996)
Month to date snowfall 0.0 0.0  
Since 1 July snowfall 0.0 0.1  
Snow Depth 0.00 in    
Sea Level Pressure  
Sea Level Pressure 29.72 in    
Wind  
Wind Speed 10 mph (SW)    
Max Wind Speed 23 mph    
Max Gust Speed 28 mph    
Visibility 10 miles    
Events Rain    
T = Trace of Precipitation, MM = Missing Value Source: NWS Daily Summary

Daily Weather History Graph

Daily Weather History Graph

Search for Another Location

Airport:

Trip Planner

Search our weather history database for the weather conditions in past years. The results will help you decide how hot, cold, wet, or windy it might be!

Date:

Astronomy

Dec. 17, 2012 Rise Set
Actual Time 6:59 AM CST 4:44 PM CST
Civil Twilight 6:31 AM CST 5:13 PM CST
Nautical Twilight 5:59 AM CST 5:45 PM CST
Astronomical Twilight 5:27 AM CST 6:16 PM CST
Moon 10:16 AM CST (12/17) 9:56 PM CST (12/17)
Length of Visible Light 10h 42m
Length of Day
9h 45m
Waxing Crescent, 25% of the Moon is Illuminated
Dec 17
Waxing Crescent
Dec 19
First Quarter
Dec 28
Full
Jan 4
Last Quarter
Jan 11
New

Hourly Weather History & Observations

Time (CST) Temp. Windchill Dew Point Humidity Pressure Visibility Wind Dir Wind Speed Gust Speed Precip Events Conditions
12:53 AM 59.0 °F - 55.9 °F 90% 29.74 in 10.0 mi SSW 8.1 mph - N/A   Overcast
1:43 AM 59.0 °F - 55.4 °F 88% 29.74 in 10.0 mi SSW 9.2 mph - 0.00 in Rain Light Rain
1:53 AM 59.0 °F - 55.9 °F 90% 29.73 in 10.0 mi SSW 9.2 mph - 0.00 in   Overcast
2:09 AM 57.2 °F - 55.4 °F 94% 29.73 in 10.0 mi SSW 6.9 mph - N/A   Mostly Cloudy
2:19 AM 57.2 °F - 55.4 °F 94% 29.74 in 10.0 mi SSW 6.9 mph - N/A   Mostly Cloudy
2:53 AM 57.0 °F - 55.0 °F 93% 29.73 in 10.0 mi South 8.1 mph - N/A   Mostly Cloudy
3:02 AM 57.2 °F - 55.4 °F 94% 29.73 in 10.0 mi SSW 8.1 mph - N/A   Mostly Cloudy
3:33 AM 57.2 °F - 55.4 °F 94% 29.73 in 10.0 mi SSW 9.2 mph - N/A   Mostly Cloudy
3:40 AM 57.2 °F - 55.4 °F 94% 29.72 in 10.0 mi SSW 9.2 mph - N/A   Scattered Clouds
3:53 AM 57.0 °F - 55.0 °F 93% 29.73 in 10.0 mi SW 6.9 mph - N/A   Scattered Clouds
4:53 AM 55.0 °F - 54.0 °F 96% 29.71 in 10.0 mi SSW 6.9 mph - N/A   Clear
5:53 AM 55.9 °F - 54.0 °F 93% 29.70 in 10.0 mi South 8.1 mph - N/A   Clear
6:53 AM 55.0 °F - 54.0 °F 96% 29.70 in 10.0 mi South 6.9 mph - N/A   Clear
7:53 AM 55.9 °F - 54.0 °F 93% 29.69 in 10.0 mi SSW 10.4 mph - N/A   Scattered Clouds
8:01 AM 55.4 °F - 53.6 °F 94% 29.69 in 10.0 mi SSW 11.5 mph - N/A   Mostly Cloudy
8:53 AM 57.9 °F - 54.0 °F 87% 29.69 in 10.0 mi South 10.4 mph - 0.01 in   Scattered Clouds
9:21 AM 59.0 °F - 55.4 °F 88% 29.70 in 10.0 mi SSW 16.1 mph 20.7 mph N/A   Mostly Cloudy
9:53 AM 61.0 °F - 54.0 °F 78% 29.71 in 10.0 mi SW 12.7 mph 23.0 mph N/A   Mostly Cloudy
10:04 AM 59.0 °F - 53.6 °F 82% 29.71 in 10.0 mi SW 13.8 mph 21.9 mph N/A   Mostly Cloudy
10:40 AM 60.8 °F - 53.6 °F 77% 29.70 in 10.0 mi SW 11.5 mph - N/A   Mostly Cloudy
10:53 AM 62.1 °F - 53.1 °F 72% 29.69 in 10.0 mi SW 12.7 mph - N/A   Partly Cloudy
11:53 AM 62.1 °F - 48.9 °F 62% 29.67 in 10.0 mi West 11.5 mph - N/A   Mostly Cloudy
12:53 PM 62.1 °F - 50.0 °F 65% 29.64 in 10.0 mi WSW 11.5 mph - 0.00 in Rain Light Rain
1:53 PM 63.0 °F - 45.0 °F 52% 29.62 in 10.0 mi WSW 9.2 mph - 0.00 in   Overcast
2:53 PM 64.0 °F - 45.0 °F 50% 29.62 in 10.0 mi WSW 11.5 mph 21.9 mph N/A   Scattered Clouds
3:53 PM 57.0 °F - 50.0 °F 77% 29.66 in 10.0 mi WNW 19.6 mph 27.6 mph 0.00 in   Mostly Cloudy
6:53 PM 46.0 °F 41.0 °F 39.9 °F 79% 29.77 in 10.0 mi NW 10.4 mph - N/A   Overcast
7:53 PM 45.0 °F 41.2 °F 39.0 °F 80% 29.78 in 10.0 mi NW 6.9 mph - N/A   Scattered Clouds
8:53 PM 42.1 °F 40.2 °F 37.0 °F 82% 29.81 in 10.0 mi West 3.5 mph - N/A   Clear
9:53 PM 37.9 °F 35.5 °F 36.0 °F 93% 29.83 in 10.0 mi WSW 3.5 mph - N/A   Clear
10:53 PM 36.0 °F 31.1 °F 35.1 °F 97% 29.85 in 10.0 mi WSW 5.8 mph - N/A   Clear
11:53 PM 37.0 °F 33.3 °F 35.1 °F 93% 29.86 in 9.0 mi SW 4.6 mph - N/A   Clear